Погода в Подывотье

Россия / Брянская область     52°03′28″N   34°08′43″E
темп.,
°C
ветер,
м/с
пор.,
м/с
влажн.,
%
обл.,
%
осадки,
мм/ч
давл.,
гПа
погр.,
м
18 мая, вт
вт1800:00+17ююв41096100 0.1 1004233
03:00+16юз379899 1.5 1004203
06:00+15ююв4698100 0.8 1005224
09:00+18ю2286100 3.3 1004134
12:00+15ю1294100 2.1 1004169
15:00+18ююв4580100 3.1 1003646
18:00+16ююв389099 2.4 1001395
21:00+15юв3894100 3.9 1002235
19 мая, ср
ср1900:00+14ююв499488 0.4 1002239
03:00+12юв489712 0.4 1003175
06:00+12юв51197100 0.0 1003422
09:00+13ююв4893100 0.0 1004641
12:00+16ююв6777100 0.0 1005938
15:00+18ююв4568100 0.0 10051152
18:00+16вюв3581100 0.0 1004593
21:00+12юв3597100 1.1 1005179
20 мая, чт
чт2000:00+12зсз1296100 1.5 100351
03:00+11з3697100 4.6 1003349
06:00+11зюз4897100 4.6 1002371
09:00+11ююз4799100 6.7 1003344
12:00+12зюз4796100 1.4 1005539
15:00+12з4694100 1.7 1008485
18:00+10з4894100 0.1 1010550
21:00+9зсз369612 0.1 1012125
21 мая, пт
пт2100:00+7зсз3795100 0.0 1013149
03:00+7з2392100 0.0 101447
06:00+8сз269473 0.0 1015167
09:00+13с3575100 0.0 1016587
12:00+16с346221 0.0 10161152
15:00+18св3455100 0.0 10151636
18:00+14юв3579100 0.5 1016116
21:00+12ссв2386100 1.3 101864
22 мая, сб
сб2200:00+11св4886100 0.4 1017157
03:00+11св41091100 0.4 1016246
06:00+11всв41092100 0.1 1016357
09:00+11св51098100 2.9 1016422
12:00+12св51096100 1.4 1016419
15:00+16всв71183100 1.4 1015740
18:00+16св5108454 0.0 1014664
21:00+13св5994100 0.0 1014355